This demonstration page uses our WeatherBlox Daily Observations layout. Learn more.

Left ArrowRight Arrow

34.02893, -84.19858

Hourly Observations for February 3, 2022

Temp ( °F °C ) Dew Point ( °F °C ) Humidity (%) Winds ( mph kmh ) Pressure ( in mb ) Visibility ( mi km ) Precip ( " mm )
12:53 am 00:53 Cloudy with Light Rain 45 7.2 42 5.6 90 90 VRB 3 6 30.12 1020 6 10 0.02 0.51
1:53 am 01:53 Cloudy 45 7.2 42 5.6 90 90 VRB 7 11 30.11 1020 7 11 0.00 0.00
2:53 am 02:53 Cloudy with Light Rain 46 7.8 43 6.1 89 89 VRB 3 6 30.10 1019 6 10 0.01 0.25
3:24 am 03:24 Cloudy with Mist and Fog 47 8.3 44 6.7 90 90 ENE 5 7 30.10 1019 6 10 0.00 0.00
3:53 am 03:53 Cloudy with Mist and Fog 47 8.3 44 6.7 90 90 VRB 3 6 30.08 1019 5 8 0.00 0.00
4:53 am 04:53 Cloudy with Mist and Fog 47 8.3 45 7.2 93 93 NE 6 9 30.07 1018 4 6 0.01 0.25
5:19 am 05:19 Cloudy with Light Rain 47 8.3 45 7.2 93 93 VRB 5 7 30.08 1019 3 5 0.00 0.00
5:53 am 05:53 Cloudy with Light Rain 48 8.9 46 7.8 93 93 VRB 6 9 30.07 1018 4 6 0.02 0.51
6:46 am 06:46 Cloudy with Light Rain 49 9.4 47 8.3 93 93 VRB 3 6 30.08 1019 2 3 0.02 0.51
6:53 am 06:53 Cloudy with Light Rain 49 9.4 47 8.3 93 93 Calm 30.08 1019 2 3 0.02 0.51
7:17 am 07:17 Cloudy with Light Rain 50 10 48 8.9 93 93 ENE 3 6 30.08 1019 3 5 0.02 0.51
7:53 am 07:53 Cloudy with Mist and Fog 51 10.6 49 9.4 92 92 Calm 30.09 1019 3 5 0.06 1.52
8:17 am 08:17 Cloudy with Rain 52 11.1 50 10 93 93 Calm 30.08 1019 2 3 0.02 0.51
8:33 am 08:33 Cloudy with Light Rain 52 11.1 50 10 93 93 ESE 3 6 30.09 1019 2 2 0.06 1.52
8:41 am 08:41 Cloudy with Light Rain 53 11.7 51 10.6 93 93 Calm 30.08 1019 3 5 0.06 1.52
8:53 am 08:53 Cloudy with Light Rain 53 11.7 51 10.6 93 93 Calm 30.09 1019 3 4 0.06 1.52
9:18 am 09:18 Cloudy with Mist and Fog 53 11.7 51 10.6 93 93 E 3 6 30.08 1019 3 5 0.01 0.25
9:29 am 09:29 Cloudy with Mist and Fog 54 12.2 52 11.1 93 93 VRB 3 6 30.08 1019 3 4 0.01 0.25
9:36 am 09:36 Cloudy with Mist and Fog 54 12.2 52 11.1 93 93 VRB 5 7 30.08 1019 3 5 0.01 0.25
9:49 am 09:49 Cloudy with Mist and Fog 55 13 52 11 88 88 VRB 3 6 30.08 1019 3 5 0.01 0.25
9:53 am 09:53 Cloudy with Mist and Fog 55 12.8 52 11.1 90 90 VRB 5 7 30.09 1019 3 5 0.01 0.25
10:53 am 10:53 Cloudy with Light Rain 56 13.3 53 11.7 90 90 undefined N/A 30.07 1018 3 4 0.02 0.51
11:01 am 11:01 Cloudy with Light Rain 56 13.3 54 12.2 93 93 SE 5 7 30.07 1018 4 6 0.00 0.00
11:53 am 11:53 Cloudy with Mist and Fog 57 13.9 55 12.8 93 93 VRB 5 7 30.05 1018 4 6 0.01 0.25
12:53 pm 12:53 Cloudy with Light Rain 59 15 57 13.9 93 93 SSE 3 6 30.03 1017 2 3 0.05 1.27
1:01 pm 13:01 Cloudy with Light Rain 59 15 57 13.9 93 93 VRB 3 6 30.01 1016 3 5 0.00 0.00
1:24 pm 13:24 Cloudy with Light Rain 60 15.6 58 14.4 93 93 Calm 30.00 1016 3 4 0.01 0.25
1:53 pm 13:53 Cloudy with Light Rain 61 16.1 59 15 93 93 SSE 6 9 30.00 1016 1 2 0.07 1.78
2:53 pm 14:53 Cloudy with Mist and Fog 62 16.7 59 15 90 90 SSE 8 13 29.98 1015 1 2 0.05 1.27
3:00 pm 15:00 Cloudy 62 16.7 59 15 90 90 SSE 6 9 29.97 1015 10 16 0.00 0.00
3:53 pm 15:53 Cloudy 62 16.7 60 15.6 93 93 SSE 10 17 29.96 1015 9 14 0.00 0.00
4:31 pm 16:31 Cloudy with Heavy Rain 62 16.7 60 15.6 93 93 SE 8 13 29.96 1014 2 3 0.06 1.52
4:43 pm 16:43 Cloudy with Light Rain 62 16.7 60 15.6 93 93 SSE 7 11 29.96 1014 3 5 0.10 2.54
4:53 pm 16:53 Cloudy 62 16.7 60 15.6 93 93 SSE 9 15 29.96 1015 10 16 0.10 2.54
5:25 pm 17:25 Cloudy with Rain 63 17.2 60 15.6 90 90 SSE 9 15 29.95 1014 4 6 0.02 0.51
5:53 pm 17:53 Cloudy 63 17.2 61 16.1 93 93 SSE 10 17 29.96 1015 9 14 0.03 0.76
6:15 pm 18:15 Cloudy with Light Rain 63 17.2 61 16.1 93 93 SE 9 15 29.95 1014 9 14 0.00 0.00
6:53 pm 18:53 Cloudy with Light Rain 63 17.2 61 16.1 93 93 SSE 8 13 29.96 1014 10 16 0.00 0.00
7:53 pm 19:53 Cloudy with Nearby Thunderstorms 64 17.8 61 16.1 90 90 SSE 8 13 29.95 1014 8 13 0.02 0.51
8:03 pm 20:03 Cloudy with Thunderstorms 64 17.8 61 16.1 90 90 SSE 9 15 29.94 1014 6 10 0.02 0.51
8:18 pm 20:18 Cloudy with Nearby Thunderstorms 64 17.8 62 16.7 93 93 SSE 7 11 29.94 1014 6 10 0.05 1.27
8:36 pm 20:36 Cloudy with Light Rain 64 17.8 62 16.7 93 93 SSE 7 11 29.93 1014 7 11 0.07 1.78
8:53 pm 20:53 Cloudy with Rain 64 17.8 62 16.7 93 93 S 7 11 29.96 1015 4 6 0.14 3.56
9:00 pm 21:00 Cloudy with Heavy Rain 64 17.8 62 16.7 93 93 SSW 14 22 29.97 1015 2 3 0.12 3.05
9:09 pm 21:09 Cloudy with Nearby Thunderstorms 62 16.7 59 15 90 90 SSW 9 15 29.98 1015 2 2 0.28 7.11
9:19 pm 21:19 Cloudy with Nearby Thunderstorms 62 16.7 59 15 90 90 S 8 13 29.98 1015 2 3 0.37 9.40
9:30 pm 21:30 Cloudy with Rain 62 16.7 60 15.6 93 93 SSE 9 15 29.97 1015 4 6 0.43 10.92
9:53 pm 21:53 Cloudy with Rain 62 16.7 60 15.6 93 93 SSE 6 9 29.97 1015 5 8 0.50 12.70
10:27 pm 22:27 Cloudy with Rain 64 17.8 62 16.7 93 93 S 10 17 29.97 1015 4 6 0.09 2.29
10:43 pm 22:43 Cloudy with Light Rain 64 17.8 62 16.7 93 93 S 12 19 29.97 1015 6 10 0.12 3.05
10:53 pm 22:53 Cloudy with Rain 64 17.8 62 16.7 93 93 S 10 17 29.98 1015 4 6 0.16 4.06
11:02 pm 23:02 Cloudy with Rain 64 17.8 62 16.7 93 93 S 12 19 29.97 1015 4 6 0.03 0.76
11:53 pm 23:53 Cloudy with Rain 63 17.2 61 16.1 93 93 S 8 13 29.98 1015 4 6 0.22 5.59

Powered by AerisWeather